カタログに戻る

STARLINK-32724

運用中通信VLEO
NORAD 62441·PAYLOAD·🇺🇸 United States

打ち上げ Dec 29, 2024 から Vandenberg Space Force Base

Loading…

次のパス (今後24時間)

TLE

最新Source: CelesTrak SupGP

元期: Sep 15, 2026, 02:22 UTC

1 62441C 24251K   26258.09909722  .00014751  00000+0  43620-3 0  2585
2 62441  53.1569 172.6771 0001436  70.5078  85.1338 15.34355696    16

AllMySatでSTARLINK-32724をリアルタイム追跡

Download on the App Store